Retour au catalogue

ORBCOMM FM 25

ActifCommunicationsLEO
NORAD 25479·PAYLOAD·🇺🇸 United States

Lancé Sep 23, 1998 depuis Cape Canaveral Space Force Station

Loading…

Prochains Passages (prochaines 24 heures)

TLE

FraisSource: Space-Track

Époque: Sep 14, 2026, 11:32 UTC

1 25479U 98053E   26257.48102838  .00000545  00000-0  21987-3 0  9992
2 25479  45.0062 271.1961 0004945 331.9994  28.0588 14.39212284463160

Suivez ORBCOMM FM 25 en temps réel avec AllMySat

Download on the App Store